Home   Weather   Norway   Bodø   Past weeks
Flag for Norway

Past Weather in Bodø, Norway — Yesterday and Last 2 Weeks

Currently: 61 °F. Broken clouds. (Weather station: Bodo Vi, Norway). See more current weather

Past Weather in Bodø — Graph

°F

Bodø Temperature Yesterday

Maximum temperature yesterday: 70 °F (at 8:20 am)
Minimum temperature yesterday: 61 °F (at 10:20 pm)
Average temperature yesterday: 66 °F

High & Low Weather Summary for the Past Weeks

 TemperatureHumidityPressure
High81 °F (Jul 15, 3:50 pm)100% (Jul 6, 6:20 am)30.24 "Hg (Jul 6, 6:20 am)
Low50 °F (Jul 8, 6:50 am)32% (Jul 15, 5:50 pm)29.30 "Hg (Jul 5, 10:50 pm)
Average61 °F74%29.81 "Hg
* Reported Jul 4 6:20 am — Jul 19 6:50 am, Bodø. Weather by CustomWeather, © 2024

Note: Actual official high and low records may vary slightly from our data, if they occured in-between our weather recording intervals... More about our weather records

Bodø Weather History for the Previous 24 Hours

Scroll right to see more
 ConditionsComfort  
Time TempWeatherWind HumidityBarometerVisibility
6:50 am
Fri, Jul 19
61 °FBroken clouds.10 mph94%30.01 "HgN/A
6:20 am61 °FBroken clouds.9 mph94%30.01 "HgN/A
5:50 am61 °FMostly cloudy.8 mph94%30.01 "HgN/A
5:20 am61 °FCloudy.7 mph94%30.01 "HgN/A
4:50 am61 °FMostly cloudy.7 mph94%30.01 "HgN/A
4:20 am61 °FCloudy.8 mph94%30.01 "HgN/A
3:20 am61 °FMore clouds than sun.8 mph94%29.98 "HgN/A
2:50 am61 °FPartly sunny.9 mph94%29.98 "HgN/A
2:20 am61 °FPassing clouds.7 mph94%29.98 "HgN/A
1:50 am61 °FPartly cloudy.8 mph94%29.98 "HgN/A
1:20 am61 °FMostly cloudy.8 mph94%29.98 "HgN/A
12:50 am61 °FLow clouds.9 mph94%29.98 "HgN/A
12:20 am61 °FMostly cloudy.9 mph100%29.98 "HgN/A
11:50 pm
Thu, Jul 18
61 °FPassing clouds.6 mph100%29.98 "HgN/A
11:20 pm61 °FPartly sunny.8 mph100%29.98 "HgN/A
10:50 pm61 °FPartly sunny.10 mph100%29.98 "HgN/A
10:20 pm61 °FPartly sunny.10 mph100%29.98 "HgN/A
9:50 pm63 °FMostly cloudy.9 mph94%29.98 "HgN/A
9:20 pm63 °FBroken clouds.9 mph94%29.98 "HgN/A
8:50 pm63 °FPartly sunny.8 mph94%29.95 "HgN/A
8:20 pm63 °FBroken clouds.10 mph94%29.95 "HgN/A
7:50 pm63 °FBroken clouds.9 mph94%29.95 "HgN/A
7:20 pm63 °FPartly sunny.9 mph94%29.95 "HgN/A
6:50 pm64 °FMostly cloudy.7 mph83%29.95 "HgN/A
6:20 pm64 °FPartly sunny.6 mph83%29.95 "HgN/A
5:50 pm66 °FPartly sunny.7 mph78%29.95 "HgN/A
5:20 pm66 °FPartly sunny.3 mph78%29.95 "HgN/A
4:50 pm66 °FBroken clouds.6 mph78%29.95 "HgN/A
4:20 pm68 °FPartly sunny.3 mph78%29.95 "HgN/A
3:50 pm68 °FPartly sunny.5 mph73%29.95 "HgN/A
3:20 pm66 °FScattered showers. Broken clouds.5 mph78%29.95 "HgN/A
2:50 pm66 °FBroken clouds.7 mph78%29.95 "HgN/A
2:20 pm68 °FBroken clouds.7 mph73%29.95 "HgN/A
1:50 pm66 °FPartly sunny.9 mph78%29.95 "HgN/A
1:20 pm66 °FPartly sunny.10 mph83%29.95 "HgN/A
12:50 pm66 °FPartly sunny.9 mph83%29.95 "HgN/A
12:20 pm66 °FPartly sunny.9 mph83%29.95 "HgN/A
11:50 am66 °FPartly sunny.5 mph73%29.92 "HgN/A
11:20 am70 °FSunny.10 mph60%29.92 "Hg10 mi
10:50 am70 °FSunny.14 mph64%29.92 "Hg10 mi
10:20 am70 °FSunny.12 mph60%29.92 "Hg10 mi
9:50 am70 °FSunny.13 mph64%29.92 "Hg10 mi
9:20 am68 °FSunny.12 mph64%29.92 "Hg10 mi
8:50 am70 °FSunny.15 mph64%29.89 "Hg10 mi
8:20 am70 °FSunny.12 mph60%29.89 "Hg10 mi
Weather by CustomWeather, © 2024

See weather overview